Jonestown, PA

2:56 PM EST on December 07, 2016 (GMT -0500)
Muir Army Air Field

Weather History for KMUI - December, 2013

Change the Weather History Date:

Saturday, December 28, 2013

  Actual Average Record
Temperature  
Mean Temperature 36 °F -  
Max Temperature 53 °F 35 °F 59 °F (2008)
Min Temperature 20 °F 25 °F 14 °F (2004)
Degree Days  
Heating Degree Days 28    
Moisture  
Dew Point 27 °F    
Average Humidity 79    
Maximum Humidity 100    
Minimum Humidity 35    
Precipitation  
Precipitation 0.00 in - - ()
Sea Level Pressure  
Sea Level Pressure 30.20 in    
Wind  
Wind Speed 3 mph (NW)    
Max Wind Speed 14 mph    
Max Gust Speed -    
Visibility 10 miles    
Events Rain    
Averages and records for this station are not official NWS values.
T = Trace of Precipitation, MM = Missing Value Source: NWS Daily Summary

Daily Weather History Graph

Daily Weather History Graph

Search for Another Location

Airport or City:

Trip Planner

Search our weather history database for the weather conditions in past years. The results will help you decide how hot, cold, wet, or windy it might be!

Date:

Astronomy

Dec. 28, 2013 Rise Set
Actual Time 7:28 AM EST 4:47 PM EST
Civil Twilight 6:57 AM EST 5:18 PM EST
Nautical Twilight 6:23 AM EST 5:52 PM EST
Astronomical Twilight 5:50 AM EST 6:25 PM EST
Moon 3:02 AM EST (12/28) 1:37 PM EST (12/28)
Length of Visible Light 10h 20m
Length of Day
9h 18m
Waning Crescent, 19% of the Moon is Illuminated
Dec 28
Waning Crescent
Jan 1
New
Jan 7
First Quarter
Jan 15
Full
Jan 24
Last Quarter

Hourly Weather History & Observations

Time (EST) Temp. Windchill Dew Point Humidity Pressure Visibility Wind Dir Wind Speed Gust Speed Precip Events Conditions
12:58 AM 23.2 °F - 23.2 °F 100% 30.31 in 10.0 mi North 1.2 mph - N/A   Clear
1:58 AM 23.2 °F - 23.2 °F 100% 30.31 in 10.0 mi Calm Calm - N/A   Clear
2:58 AM 21.0 °F - 21.0 °F 100% 30.29 in 10.0 mi Calm Calm - N/A   Clear
3:58 AM 20.5 °F - 20.5 °F 100% 30.27 in 10.0 mi Calm Calm - N/A   Clear
4:58 AM 20.8 °F - 20.8 °F 100% 30.26 in 10.0 mi Calm Calm - N/A   Clear
5:58 AM 20.8 °F - 20.8 °F 100% 30.26 in 10.0 mi Calm Calm - N/A   Clear
6:58 AM 20.5 °F - 20.5 °F 100% 30.27 in 10.0 mi Calm Calm - N/A   Overcast
7:58 AM 23.0 °F - 23.0 °F 100% 30.27 in 10.0 mi Calm Calm - N/A   Overcast
8:58 AM 26.6 °F - 26.6 °F 100% 30.27 in 10.0 mi Calm Calm - N/A   Overcast
9:58 AM 31.5 °F - 31.5 °F 100% 30.27 in 10.0 mi NE 1.2 mph - N/A   Mostly Cloudy
10:58 AM 39.6 °F - 28.4 °F 64% 30.25 in 10.0 mi Variable 2.3 mph - N/A   Clear
11:58 AM 45.5 °F 41.8 °F 28.8 °F 52% 30.19 in 10.0 mi South 6.9 mph - N/A   Clear
12:58 PM 49.8 °F - 26.4 °F 40% 30.15 in 10.0 mi SW 11.5 mph - 0.00 in Rain Light Rain
12:59 PM 50.0 °F - 26.6 °F 40% 30.13 in 10.0 mi SW 11.5 mph - N/A   Clear
1:58 PM 52.9 °F - 26.6 °F 36% 30.13 in 10.0 mi SW 13.8 mph - 0.00 in   Clear
2:58 PM 53.8 °F - 26.8 °F 35% 30.12 in 10.0 mi WSW 11.5 mph - N/A   Clear
3:58 PM 52.5 °F - 26.4 °F 36% 30.13 in 10.0 mi WSW 12.7 mph - N/A   Clear
4:58 PM 48.9 °F - 25.3 °F 40% 30.14 in 10.0 mi SW 6.9 mph - N/A   Clear
5:58 PM 41.9 °F - 27.3 °F 56% 30.16 in 10.0 mi NE 1.2 mph - N/A   Clear
6:58 PM 35.6 °F - 30.6 °F 82% 30.15 in 10.0 mi North 2.3 mph - N/A   Clear
7:59 PM 33.4 °F - 32.2 °F 95% 30.15 in 10.0 mi East 2.3 mph - N/A   Clear
8:58 PM 32.2 °F - 32.0 °F 99% 30.15 in 10.0 mi Calm Calm - N/A   Clear
9:58 PM 32.2 °F - 32.0 °F 99% 30.14 in 10.0 mi NE 1.2 mph - N/A   Clear
10:58 PM 32.2 °F - 32.0 °F 99% 30.12 in 10.0 mi North 2.3 mph - N/A   Clear
11:58 PM 31.1 °F - 30.9 °F 99% 30.11 in 10.0 mi NE 2.3 mph - N/A   Clear